Regional Weather Roundup
Issued by NWS Huntsville, AL

Home | Current Version | Previous Version | Text Only | Print | Product List | Glossary On
Versions: 1 2 3 4 5 6 7 8 9 10 11 12 13 14 15 16 17 18 19 20 21 22 23 24 25 26 27 28 29 30 31 32 33 34 35 36 37 38 39 40 41 42 43 44 45 46 47 48 49 50
130
ASUS44 KHUN 232210
RWRHUN

WEATHER ROUNDUP FOR THE TENNESSEE VALLEY
NATIONAL WEATHER SERVICE HUNTSVILLE AL
500 PM CDT SAT JUL 23 2016

ALZ001>004-232300-
NORTHWEST ALABAMA

CITY           SKY/WX    TMP DP  RH WIND       PRES   REMARKS
COURTLAND HCN    N/A     90 N/A N/A W8          N/A
RUSSELLVILLE     N/A     86 N/A N/A MISG        N/A
SHOALS AIRPORT SUNNY     92  73  53 SW8       29.95S HX 100
SHOALS TVA RES   N/A     91 N/A N/A MISG        N/A
$$

ALZ005>007-016-232300-
NORTH CENTRAL ALABAMA

CITY           SKY/WX    TMP DP  RH WIND       PRES   REMARKS
CULLMAN AG STN   N/A     86 N/A N/A W8          N/A
DECATUR AP     CLOUDY    82  77  84 E5        29.94F HX  90
HUNTSVILLE AP  CLOUDY    84  69  60 N3        29.94F
HUN NWS/UAH      N/A     86  64  48 NW6         N/A
MERIDIANVILLE  CLOUDY    90  63  40 SW15G22   29.96R HX  90
REDSTONE ARSN  CLOUDY    84  72  66 N3        29.94S
VINEMONT AP    FAIR      86  73  66 N3        29.99F HX  93
$$

ALZ008>010-232300-
NORTHEAST ALABAMA

CITY           SKY/WX    TMP DP  RH WIND       PRES   REMARKS
ALBERTVILLE    CLOUDY    82  79  89 CALM      29.97F HX  93
FORT PAYNE     CLOUDY    72  68  88 NE3       29.98F
SCOTTSBORO AP  LGT RAIN  79  72  78 N15G26    30.01R
SCOTTSBORO HCN   N/A     86 N/A N/A MISG        N/A
VALLEY HEAD      N/A     77 N/A N/A MISG        N/A
$$

TNZ076-096-097-232300-
SOUTHEASTERN MIDDLE TENNESSEE

CITY           SKY/WX    TMP DP  RH WIND       PRES   REMARKS
TULLAHOMA        N/A     81  73  78 E10       29.99R
WINCHESTER     MOSUNNY   86  72  62 SE10      29.97F HX  92
$$

...SURROUNDING SITES...

CITY           SKY/WX    TMP DP  RH WIND       PRES   REMARKS
ATLANTA        CLOUDY    84  71  65 NE10      30.00F
ANNISTON       PTSUNNY   89  75  63 CALM      29.97S HX  99
BIRMINGHAM     CLOUDY    80  75  84 CALM      29.99F
CHATTANOOGA    CLOUDY    85  69  58 S10       29.98F
DALTON         CLOUDY    81  72  74 SE6       30.00F
GADSDEN        TSTM      77  72  83 SE21G26   30.00R VSB 1
GOLDEN TRNGL   SUNNY     90  73  58 CALM      29.95R HX  98
HALEYVILLE     FAIR      88  76  67 VRB6      29.99F HX  99
JACKSON TN     PTSUNNY   88  76  67 NE10      29.93F HX  99
MEMPHIS        CLOUDY    86  72  62 VRB3      29.93F HX  92
NASHVILLE      CLOUDY    91  71  51 E3        29.95S HX  97
OXFORD MS      FAIR      84  72  65 SW3       29.96F
ROME           CLOUDY    77  73  87 N5        29.98F
SAVANNAH       SUNNY     91  73  55 SW10      29.93S HX 100
TUPELO         MOSUNNY   82  74  76 S3        29.95R
TUSCALOOSA     MOSUNNY   87  76  69 NW6       29.95R HX  97
$$

...GULF COAST WEATHER...

CITY           SKY/WX    TMP DP  RH WIND       PRES   REMARKS
GULFPORT       MOSUNNY   89  76  65 VRB6      29.94F HX 100
PASCAGOULA     SUNNY     88  77  69 VRB5      29.95F HX 100
MOBILE         MOSUNNY   87  75  67 S9        29.96F HX  96
GULF SHORES    PTCLDY    86  76  72 S10G20    29.96F HX  95
PENSACOLA      PTSUNNY   89  75  63 S13       29.96F HX  99
DESTIN         MOSUNNY   90  77  65 VRB7      29.97F HX 103
PANAMA CITY    MOSUNNY   88  75  65 S8        29.97F HX  98
APPALACHICOLA  SUNNY     88  77  69 S9        29.97F HX 100
$$





USA.gov is the U.S. government's official web portal to all federal, state and local government web resources and services.